Location: *
(58.7167°N, 26.1833°E)
Time: 16:40:42
(UTC+00:00)

IGS 5A - Pass Details

Date: 25 August 2019
Orbit: 584 x 588 km, 97.6° (Epoch: 16 September)

Event Time Altitude Azimuth Distance (km) Brightness Sun altitude
Exits shadow 19:45:34 16° 181° (S) 1,545 5.2 -14.2°
Maximum altitude 19:48:44 59° 258° (WSW) 686 3.9 -14.4°
Drops below altitude 10° 19:52:52 10° 339° (NNW) 1,924 7.3 -14.7°
Sets 19:55:04 0° 343° (NNW) 2,830 8.4 -14.9°
